Location: Baia Mare
(47.6567°N, 23.5850°E)
Time: 23:26:14
(UTC+03:00)

ISS - Pass Details

Date: 05 September 2019
Orbit: 411 x 421 km, 51.6° (Epoch: 19 September)

Event Time Altitude Azimuth Distance (km) Brightness Sun altitude
Exits shadow 04:56:02 43° 301° (WNW) 592 -3.3 -18.3°
Maximum altitude 04:56:43 53° 345° (NNW) 516 -3.3 -18.2°
Drops below altitude 10° 05:00:01 10° 64° (ENE) 1,495 0.3 -17.7°
Sets 05:02:09 0° 69° (ENE) 2,362 1.7 -17.4°
